Wind_Speed
29 30 45 70 53 48 43 50 49 46 41 39 40 44 49 42 39 41 39 39 40 37 34 35 39 41 30 37 35 28 26 29 32 31 31 32 36 35 30 28 28 30 31 32
28 50 67 37 43 46 46 45 47 44 36 36 38 41 44 43 40 38 36 38 35 38 39 35 33 33 36 33 32 29 30 29 28 30 30 32 31 29 22 23 26 28 29 29
35 59 35 40 44 40 47 49 46 46 35 36 35 42 43 42 40 40 38 38 41 44 41 42 37 32 36 34 28 28 26 25 25 28 28 27 28 22 19 20 24 27 27 24
34 34 42 41 46 44 47 42 38 37 35 34 31 31 46 40 37 35 34 33 35 35 33 31 28 31 31 29 24 17 17 20 21 22 22 21 15 14 17 20 24 26 26 24
50 33 35 44 53 40 54 34 35 35 37 35 36 30 52 29 29 26 27 31 31 28 28 27 23 30 30 27 22 17 19 20 16 15 14 12 11 15 18 20 22 19 20 20
40 34 35 41 40 40 34 37 36 36 35 25 45 36 51 38 32 31 30 29 25 25 22 21 31 32 27 25 22 20 17 14 11 9 10 10 12 16 18 20 17 17 16 16
31 34 36 35 35 40 40 36 25 23 22 23 33 35 47 36 29 29 26 23 18 14 18 23 22 26 26 22 19 15 12 9 9 10 9 11 11 14 17 17 15 13 13 9
21 20 35 38 43 37 48 45 27 24 15 22 38 35 43 34 27 22 15 15 11 12 17 21 24 25 24 17 13 9 8 9 9 9 11 12 12 15 13 9 11 10 9 5
14 20 22 34 37 39 38 50 45 36 33 24 27 35 39 26 25 18 11 12 13 16 19 24 23 20 16 12 9 7 8 9 9 11 11 10 11 12 7 7 9 7 4 5
15 25 28 25 35 42 43 39 45 39 23 21 27 28 18 12 21 15 14 16 20 18 17 17 16 14 11 10 8 8 9 8 9 9 9 10 9 6 5 6 4 4 3 3
18 21 40 25 30 45 42 43 53 36 38 16 14 19 17 13 8 14 16 20 20 15 15 15 14 11 9 8 8 8 8 7 7 7 8 8 5 2 3 2 2 0 1 3
14 15 30 31 24 38 43 40 38 30 33 36 26 26 8 11 11 14 18 23 22 17 17 17 12 10 9 9 8 8 7 5 5 7 7 4 1 2 2 3 1 3 3 3
9 11 16 27 26 29 44 46 42 40 29 32 23 24 11 10 13 16 21 21 16 17 18 17 13 10 9 9 7 6 6 3 4 4 2 2 1 1 2 2 1 4 5 4
17 17 22 17 12 9 20 45 47 43 43 33 35 11 12 19 19 16 16 15 15 22 20 16 13 12 11 8 6 6 5 3 2 2 3 1 2 1 3 2 4 6 7 6
12 19 19 29 28 21 22 23 45 46 45 38 33 14 21 20 19 18 16 18 22 23 19 15 14 11 10 8 7 5 5 2 3 5 3 1 2 1 2 2 7 6 8 6
14 12 22 19 20 27 27 28 27 47 39 44 37 20 18 24 19 17 19 23 23 19 19 15 13 12 11 7 6 5 4 4 4 6 1 1 2 5 4 6 8 7 6 6
19 13 23 16 15 19 22 30 27 46 41 41 30 25 27 21 18 17 19 19 20 17 19 13 15 14 13 6 5 5 3 4 5 4 3 5 4 8 7 8 8 8 7 5
18 15 14 2 3 5 16 19 23 44 39 36 15 22 22 26 20 19 22 25 18 13 16 14 15 15 13 8 7 6 4 5 5 2 2 8 9 9 8 8 7 8 7 6
14 12 7 3 8 24 2 7 4 27 21 13 11 19 21 22 20 20 21 25 26 23 16 14 14 14 12 8 7 6 4 7 7 8 6 7 8 8 7 7 7 6 4 2
11 10 9 1 3 5 8 6 4 7 23 3 8 10 17 22 13 16 20 17 22 21 19 16 15 15 11 8 9 7 5 9 9 8 5 6 5 6 6 6 6 4 2 4
4 7 6 7 3 11 13 14 2 2 9 10 11 13 15 14 10 14 15 14 23 23 21 18 16 12 8 7 9 8 7 11 11 8 10 9 6 6 7 6 5 4 4 6
7 5 1 4 5 6 6 13 19 11 9 12 10 6 15 14 13 12 14 15 27 27 24 17 18 12 9 7 8 9 8 11 14 9 13 6 5 5 7 6 7 8 10 13
8 8 7 7 5 12 16 13 22 20 19 14 8 5 7 11 17 21 15 15 25 31 27 17 20 16 12 8 7 10 9 10 14 12 13 4 6 5 7 7 8 7 9 11
8 11 9 7 5 12 9 9 14 15 21 15 11 9 9 10 8 13 15 16 15 29 31 24 22 21 14 11 8 9 11 10 12 12 11 4 5 5 7 6 7 8 7 7
15 16 13 9 1 4 4 6 3 2 7 12 10 9 5 6 6 6 10 13 12 15 17 28 22 25 18 13 11 8 11 12 12 11 10 7 6 3 5 6 6 7 7 8
16 11 11 9 8 3 4 8 8 7 5 7 6 8 7 4 4 6 11 18 22 22 18 25 27 25 21 18 14 11 8 14 13 11 11 10 7 5 6 4 4 4 6 8
Wind_Direction
222 218 220 229 223 233 236 240 248 255 255 253 257 260 265 269 267 263 264 262 266 267 272 273 265 279 275 272 274 269 266 265 269 270 271 270 267 271 266 263 266 275 287 295
215 222 232 230 231 234 238 247 250 255 255 255 263 263 265 264 262 265 266 267 270 272 268 266 276 276 274 264 271 259 262 261 260 265 268 268 267 268 261 262 269 281 288 300
223 230 232 230 233 233 235 237 244 251 258 261 267 269 266 263 263 264 264 267 268 267 266 256 259 269 267 266 268 259 256 259 270 266 267 266 265 262 263 274 284 288 297 304
238 240 230 233 234 227 237 234 243 250 253 259 257 270 262 264 265 265 267 267 269 274 272 270 265 255 258 262 261 242 249 274 267 271 270 261 253 258 267 270 280 299 305 305
237 233 232 232 232 228 239 237 241 246 251 257 256 259 265 266 266 269 265 267 269 269 266 254 249 254 252 260 247 253 266 272 273 270 262 239 246 254 271 280 290 291 291 293
247 242 238 237 239 233 238 238 243 248 251 247 247 245 267 262 267 272 271 273 269 265 261 258 240 239 241 252 253 260 268 267 263 261 235 245 257 268 282 289 293 293 298 303
252 247 239 236 238 228 228 229 236 238 238 243 248 241 253 265 268 267 273 270 264 253 248 222 224 226 238 245 259 249 259 262 256 238 249 268 268 281 282 286 289 298 303 295
277 266 232 224 228 226 222 226 218 219 216 245 249 251 258 251 266 261 267 246 236 216 193 202 221 235 240 242 226 249 263 248 236 249 267 274 281 274 279 275 286 315 309 290
299 270 247 234 227 226 227 225 225 237 236 250 252 241 252 246 241 245 253 215 199 196 227 230 229 222 219 217 240 248 241 235 251 267 268 275 274 281 283 293 317 311 305 271
278 283 269 265 226 230 229 222 224 225 234 239 236 251 273 209 234 228 225 198 200 217 222 209 202 200 209 228 236 232 231 248 260 262 273 269 264 265 286 303 313 316 301 267
274 263 267 275 247 217 224 231 217 228 226 238 247 268 234 193 183 184 183 174 201 225 207 197 194 197 221 230 228 227 244 253 260 278 270 274 261 271 321 344 333 78 270 199
257 256 258 263 245 218 222 219 219 220 220 231 243 248 169 158 162 176 182 179 201 224 207 197 193 206 226 229 224 235 245 246 277 272 266 254 169 281 339 315 19 155 186 174
309 247 260 259 262 231 219 219 224 227 229 219 234 245 213 209 195 178 162 178 203 187 189 187 192 210 222 217 225 235 229 259 259 266 281 227 120 263 313 281 148 155 164 165
270 267 250 253 267 317 245 213 224 222 212 224 226 212 173 172 161 160 170 193 184 173 179 183 192 209 207 214 214 214 225 245 220 150 284 134 253 289 290 212 143 158 153 151
276 280 290 259 264 290 295 255 219 220 207 220 227 188 208 177 167 160 178 165 161 168 175 186 192 201 202 204 206 190 225 218 143 209 288 217 265 251 154 155 148 149 155 169
305 273 308 275 241 274 288 245 231 216 203 216 232 175 174 138 149 160 158 161 158 170 172 187 187 199 201 204 200 190 210 187 167 238 241 204 154 117 114 123 142 141 153 140
288 306 317 252 219 282 277 217 222 205 203 208 223 188 159 132 137 147 153 161 157 173 183 188 188 203 204 202 198 194 202 184 168 227 236 139 115 117 118 118 123 132 141 141
270 288 302 322 269 267 205 199 223 200 201 202 179 181 164 154 151 134 139 142 161 183 181 204 195 209 213 205 194 194 203 168 157 176 145 143 130 123 103 96 118 109 112 114
245 263 278 210 212 272 338 73 72 201 171 132 175 115 133 131 156 157 151 156 157 164 207 218 211 216 214 202 181 184 184 161 153 174 189 173 160 128 117 97 95 125 116 141
218 232 240 286 251 224 35 82 339 105 154 105 130 101 125 142 142 174 182 174 165 159 177 223 215 217 209 196 175 177 176 157 161 172 167 182 170 152 140 120 108 119 116 113
197 253 261 273 268 302 9 17 126 65 114 63 69 154 158 169 157 176 202 187 169 164 162 223 216 218 193 188 181 177 173 159 162 165 172 202 198 132 121 117 108 99 90 55
346 3 309 235 242 338 357 63 98 91 92 71 60 157 192 196 209 202 192 182 174 168 161 216 220 213 195 182 185 188 171 161 165 177 180 199 163 146 125 128 111 110 86 74
4 10 10 41 100 84 58 65 107 95 81 51 61 120 179 218 239 236 216 184 181 179 171 188 223 217 216 190 188 195 184 171 170 184 192 177 184 141 140 143 137 130 125 109
20 18 31 116 114 73 55 65 113 110 92 80 50 55 146 162 177 199 204 197 182 190 197 175 221 223 222 209 196 196 199 186 181 190 196 200 196 146 146 148 146 148 161 146
23 28 32 45 194 119 9 20 133 68 117 90 91 60 69 55 144 140 166 169 178 182 186 180 205 230 223 218 207 212 203 203 190 190 188 192 212 184 164 167 160 150 148 126
15 1 9 6 19 322 337 90 101 7 29 16 105 78 49 14 168 162 168 181 188 181 180 187 184 224 224 213 211 216 209 210 207 196 194 187 193 201 190 187 189 166 154 148
Height
3056 3063 3054 3037 3059 3067 3076 3073 3073 3077 3083 3085 3084 3083 3076 3083 3083 3082 3081 3080 3081 3083 3084 3085 3082 3083 3084 3081 3081 3079 3081 3080 3079 3080 3080 3081 3080 3080 3080 3079 3080 3080 3080 3078
3051 3040 3023 3061 3060 3064 3068 3069 3066 3070 3076 3078 3076 3073 3071 3073 3073 3074 3074 3072 3073 3074 3075 3075 3075 3075 3074 3074 3075 3074 3075 3076 3075 3075 3076 3075 3075 3075 3075 3075 3075 3076 3076 3072
3039 3019 3052 3049 3053 3060 3056 3056 3063 3064 3072 3071 3071 3064 3061 3063 3064 3065 3065 3066 3066 3065 3064 3065 3067 3068 3066 3068 3068 3069 3070 3071 3070 3070 3070 3070 3070 3069 3071 3072 3071 3070 3069 3066
3030 3034 3036 3042 3042 3050 3046 3055 3061 3063 3067 3062 3069 3052 3048 3055 3056 3057 3058 3057 3056 3055 3056 3057 3060 3058 3060 3062 3063 3063 3065 3066 3066 3066 3066 3066 3067 3067 3068 3069 3066 3063 3062 3060
3008 3023 3030 3032 3025 3045 3033 3057 3055 3057 3058 3061 3057 3056 3024 3049 3048 3050 3050 3049 3048 3049 3050 3052 3055 3051 3055 3057 3059 3060 3061 3061 3061 3061 3062 3063 3064 3064 3064 3064 3062 3062 3059 3056
3011 3020 3023 3022 3032 3037 3045 3047 3050 3052 3052 3047 3037 3050 3019 3039 3044 3042 3042 3042 3041 3042 3043 3045 3044 3046 3050 3053 3056 3056 3056 3057 3057 3058 3060 3061 3061 3061 3061 3060 3059 3058 3056 3053
3009 3010 3013 3019 3022 3028 3034 3039 3041 3045 3040 3023 3037 3039 3023 3034 3037 3034 3034 3034 3035 3037 3037 3035 3039 3043 3048 3050 3052 3053 3053 3054 3054 3056 3057 3058 3059 3058 3057 3056 3055 3054 3051 3049
3007 3002 3003 3008 3009 3017 3022 3025 3024 3024 3022 3023 3032 3024 3020 3025 3027 3028 3028 3028 3031 3033 3034 3034 3038 3042 3045 3047 3048 3050 3050 3051 3053 3054 3055 3055 3055 3054 3055 3054 3052 3050 3048 3047
3003 2995 2998 3003 3008 3013 3012 3019 3017 3024 3021 3021 3013 3013 3012 3018 3020 3023 3023 3026 3029 3030 3031 3032 3036 3039 3042 3044 3046 3047 3049 3050 3051 3052 3052 3052 3051 3051 3051 3050 3048 3048 3046 3046
3003 2997 2990 2991 3002 3000 3004 3012 3019 3014 3017 3013 3011 3006 3004 3009 3012 3017 3020 3022 3024 3027 3028 3030 3034 3037 3041 3042 3044 3046 3047 3048 3049 3049 3049 3049 3049 3048 3048 3047 3046 3046 3045 3045
3000 3000 2983 2990 2984 2992 2997 2998 3003 3012 3013 3008 3010 3005 3002 3004 3009 3013 3017 3020 3021 3024 3027 3030 3033 3036 3039 3041 3043 3044 3046 3046 3046 3046 3046 3047 3046 3045 3046 3045 3045 3045 3046 3046
2995 2991 2985 2982 2981 2989 2991 2993 2998 2999 3004 3008 3010 3004 3002 3004 3008 3011 3015 3017 3020 3023 3025 3029 3032 3036 3038 3040 3042 3043 3044 3044 3045 3044 3044 3044 3044 3044 3044 3044 3044 3044 3046 3047
2988 2985 2982 2982 2979 2975 2979 2988 2993 3000 3007 3004 3006 3003 3003 3005 3007 3011 3013 3015 3018 3021 3025 3028 3032 3035 3038 3040 3041 3042 3042 3043 3043 3042 3042 3042 3043 3043 3043 3044 3044 3045 3046 3047
2986 2983 2982 2977 2974 2979 2978 2983 2985 2992 2996 2998 2999 3000 3002 3003 3005 3009 3011 3013 3016 3021 3025 3029 3032 3035 3037 3039 3039 3041 3042 3042 3042 3042 3041 3042 3043 3043 3043 3043 3044 3045 3046 3048
2982 2977 2977 2975 2974 2978 2977 2975 2979 2981 2989 2995 2992 2997 3002 3003 3005 3007 3010 3013 3017 3022 3026 3029 3032 3034 3036 3037 3039 3039 3041 3041 3041 3042 3041 3042 3043 3042 3043 3043 3044 3046 3047 3048
2980 2973 2972 2969 2973 2977 2976 2969 2970 2978 2986 2992 2991 2995 2998 2997 3001 3007 3011 3013 3017 3023 3027 3029 3032 3034 3036 3037 3038 3040 3040 3040 3041 3040 3042 3042 3042 3042 3043 3044 3045 3046 3048 3049
2979 2975 2969 2964 2972 2974 2964 2957 2964 2971 2980 2985 2990 2992 2995 2998 3005 3008 3012 3016 3020 3024 3028 3029 3032 3034 3036 3037 3038 3040 3040 3040 3041 3041 3042 3043 3042 3043 3045 3045 3046 3047 3048 3049
2975 2976 2971 2964 2963 2970 2953 2959 2963 2969 2978 2983 2989 2993 2990 2994 3001 3002 3006 3012 3021 3026 3029 3030 3032 3034 3035 3037 3038 3039 3041 3041 3041 3042 3043 3044 3044 3045 3045 3046 3047 3048 3049 3050
2973 2973 2972 2970 2973 2961 2954 2953 2959 2969 2971 2973 2982 2983 2985 2990 2996 3004 3009 3012 3015 3021 3028 3030 3032 3033 3035 3036 3037 3039 3041 3041 3041 3045 3045 3045 3046 3047 3048 3048 3049 3049 3050 3050
2970 2971 2973 2969 2972 2959 2960 2959 2957 2960 2970 2976 2982 2982 2984 2992 2998 3003 3009 3014 3017 3021 3027 3028 3031 3032 3034 3036 3037 3039 3041 3040 3042 3045 3046 3047 3047 3048 3049 3050 3051 3050 3050 3050
2967 2966 2967 2969 2971 2964 2957 2959 2960 2961 2981 2978 2980 2981 2986 2989 2996 3003 3007 3013 3017 3021 3025 3028 3031 3032 3034 3035 3037 3039 3040 3041 3043 3046 3048 3048 3047 3049 3050 3051 3052 3051 3052 3051
2968 2969 2968 2970 2970 2967 2964 2964 2966 2974 2976 2978 2980 2982 2987 2993 2997 3001 3006 3011 3015 3019 3023 3027 3030 3032 3034 3035 3037 3039 3040 3041 3044 3046 3049 3048 3049 3050 3052 3053 3054 3054 3054 3054
2969 2975 2972 2972 2971 2973 2970 2971 2970 2973 2973 2977 2979 2982 2986 2991 2997 3002 3006 3009 3013 3018 3021 3028 3028 3030 3033 3035 3037 3039 3041 3041 3044 3046 3048 3049 3051 3051 3053 3055 3056 3056 3057 3057
2973 2968 2972 2978 2975 2970 2968 2971 2973 2973 2975 2980 2984 2985 2987 2993 2997 3000 3004 3007 3011 3015 3020 3024 3027 3028 3032 3035 3036 3038 3041 3042 3043 3045 3047 3049 3051 3053 3054 3056 3057 3057 3058 3059
2980 2977 2974 2974 2975 2975 2972 2973 2976 2979 2980 2982 2986 2990 2992 2995 2996 2998 3001 3004 3008 3012 3016 3021 3027 3026 3030 3033 3035 3037 3039 3042 3043 3045 3047 3049 3051 3053 3054 3056 3058 3059 3059 3060
2981 2982 2984 2984 2982 2980 2980 2980 2982 2984 2985 2987 2987 2990 2993 2994 2995 2995 2997 2999 3004 3007 3012 3018 3023 3025 3027 3031 3034 3036 3038 3041 3043 3045 3046 3049 3051 3052 3055 3056 3058 3060 3062 3063